User: anonymous   Login
Location: Unspecified
(0.0000°N, 0.0000°E)
Time: 04:53:54
(UTC+00:00)
Language:

YAOGAN 15 - Orbit

View from above orbital plane
View from above orbital plane
View from above satellite
View from above satellite

Ground track
Ground track

The orbit data is extracted from the following two-line orbital elements,

1 38354U 12029A   18113.87360464 -.00000037  00000-0  18714-4 0  9995
2 38354 100.4293 247.9177 0006224 117.3226 242.8527 13.15146289283381
Epoch (UTC): 23 April 2018 20:57:59
Eccentricity: 0.0006224
inclination: 100.4293°
perigee height: 1198 km
apogee height: 1208 km
right ascension of ascending node: 247.9177°
argument of perigee: 117.3226°
revolutions per day: 13.15146289
mean anomaly at epoch: 242.8527°
orbit number at epoch: 28338

The dashed part of the orbit path shows where the satellite is in the earth's shadow,  

DLR